User: anonymous   Login
Location: Newark
(52.4480°N, 1.4938°W)
Time: 03:37:02
(UTC+00:00)
Language:

UWE-3 - Orbit

View from above orbital plane
View from above orbital plane
View from above satellite
View from above satellite

Ground track
Ground track

The orbit data is extracted from the following two-line orbital elements,

1 39446U 13066AG  20329.18831167 +.00000384 +00000-0 +57011-4 0  9996
2 39446 097.6145 310.1376 0070577 147.6979 212.8585 14.78629137376173
Epoch (UTC): 24 November 2020 04:31:10
Eccentricity: 0.0070577
inclination: 97.6145°
perigee height: 584 km
apogee height: 683 km
right ascension of ascending node: 310.1376°
argument of perigee: 147.6979°
revolutions per day: 14.78629137
mean anomaly at epoch: 212.8585°
orbit number at epoch: 37617

The dashed part of the orbit path shows where the satellite is in the earth's shadow,  

DLR